This is the latest recevied weather packets stored in our database for station/object SP9KB-13. If no packets are shown the sender has not sent any weather packets the latest 10 day(s).
| Time | Temp. | Humidity | Pressure | Rain* | Wind** | Luminosity | Snow |
|---|---|---|---|---|---|---|---|
| 1778140284 | 18.33° C | 67% | 992.3 hPa | 0 mm | - | - | - |
| 1778139984 | 17.78° C | 68% | 992.3 hPa | 0 mm | - | - | - |
| 1778139683 | 18.33° C | 68% | 992.4 hPa | 0 mm | - | - | - |
| 1778139383 | 17.78° C | 70% | 992.5 hPa | 0 mm | - | - | - |
| 1778139082 | 17.78° C | 70% | 992.5 hPa | 0 mm | - | - | - |
| 1778138781 | 17.78° C | 71% | 992.4 hPa | 0 mm | - | - | - |
| 1778138481 | 17.78° C | 71% | 992.3 hPa | 0 mm | - | - | - |
| 1778138180 | 17.78° C | 71% | 992.3 hPa | 0 mm | - | - | - |
| 1778137880 | 17.22° C | 72% | 992.4 hPa | 0 mm | - | - | - |
| 1778137579 | 17.22° C | 73% | 992.3 hPa | 0 mm | - | - | - |
| 1778137279 | 16.67° C | 73% | 992.5 hPa | 0 mm | - | - | - |
| 1778136978 | 16.67° C | 74% | 992.2 hPa | 0 mm | - | - | - |
| 1778136678 | 16.11° C | 75% | 992.3 hPa | 0 mm | - | - | - |
| 1778136377 | 16.11° C | 75% | 992.2 hPa | 0 mm | - | - | - |
| 1778136077 | 16.11° C | 75% | 992 hPa | 0 mm | - | - | - |
| 1778135776 | 15.56° C | 76% | 992.3 hPa | 0 mm | - | - | - |
| 1778135476 | 15.56° C | 77% | 992.1 hPa | 0 mm | - | - | - |
| 1778135175 | 15.56° C | 77% | 992.2 hPa | 0 mm | - | - | - |
| 1778134874 | 15.56° C | 77% | 992.3 hPa | 0 mm | - | - | - |
| 1778134574 | 15.56° C | 77% | 992.2 hPa | 0 mm | - | - | - |
| 1778134273 | 15° C | 79% | 992.1 hPa | 0 mm | - | - | - |
| 1778133973 | 15° C | 79% | 992.2 hPa | 0 mm | - | - | - |
| 1778133672 | 15° C | 80% | 992.1 hPa | 0 mm | - | - | - |
| 1778133372 | 15° C | 80% | 992.1 hPa | 0 mm | - | - | - |
| 1778133071 | 15° C | 79% | 992.1 hPa | 0 mm | - | - | - |
* Rain latest hour (hover to see other rain measurements)
** Current wind speed in m/s (hover to see current wind gust speed)